« Back
NWS Peachtree City, Ga » Text Product » GA Regional Weather Roundup


Printer-friendly Version
Current Version              Previous Versions:   1  2  3  4  5  6  7  8  9  

Regional Weather Roundup

180
ASUS42 KFFC 080103
RWRGA
WEATHER ROUNDUP FOR GEORGIA
NATIONAL WEATHER SERVICE PEACHTREE CITY GA
800 PM EST SUN FEB 07 2016

NOTE: "FAIR" INDICATES FEW OR NO CLOUDS BELOW 12,000 FEET WITH NO
SIGNIFICANT WEATHER AND/OR OBSTRUCTIONS TO VISIBILITY.

* = USE WITH CAUTION. THE STATIONS MARKED WITH AN ASTERISK MAY NOT
REPORT WEATHER SUCH AS PRECIPITATION, FOG, OR THUNDER AND ARE NOT
QUALITY CONTROLLED BY NWS.

THE REMARK "TC" DENOTES TEMPERATURE READING IN DEGREES CELSIUS.

GAZ001>058-080200-
NORTH GEORGIA

CITY           SKY/WX    TMP DP  RH WIND       PRES   REMARKS
ATLANTA        PTCLDY    47  21  35 VRB5      29.99S
ATHENS         CLEAR     49  22  34 W7        29.96R
CHAMBLEE       CLEAR     46  22  38 W5        29.98F
PEACHTREE CITY CLEAR     41  27  57 CALM      30.00S
ROME           CLEAR     44  24  45 W5        29.99S
WEST ATLANTA   CLEAR     48  22  35 SW3       29.99F
GAINESVILLE    CLEAR     46  21  37 W8        29.97S
CARTERSVILLE   CLEAR     42  26  53 CALM      30.00S


CITY           SKY/WX    TMP DP  RH WIND       PRES   REMARKS
LAWRENCEVILLE* CLEAR     46  21  36 W6        29.97S
MARIETTA       PTCLDY    44  23  43 W5        29.97F
KENNESAW*      CLEAR     45  21  39 W6        29.99F
BLAIRSVILLE*     N/A     39  -2  17 CALM      29.96F
$$

GAZ059>098-102>109-080200-
CENTRAL GEORGIA

CITY           SKY/WX    TMP DP  RH WIND       PRES   REMARKS
AUGUSTA-BUSH   CLEAR     42  29  59 W7        29.94S
AUGUSTA-DANIEL CLEAR     51  23  33 W6        29.95R
COLUMBUS       CLEAR     48  23  37 W6        30.03R
MACON          CLEAR     42  28  57 W5        30.00R
ROBINS AFB     CLEAR     46  25  44 W5        29.99S


CITY           SKY/WX    TMP DP  RH WIND       PRES   REMARKS
LAGRANGE*      CLEAR     45  33  63 NW3       30.02S
SYLVANIA*      CLEAR     42  34  73 CALM      29.96R
MILLEDGEVILLE* CLEAR     46  28  49 W3        29.98S
$$

GAZ099>101-110>166-080200-
SOUTH GEORGIA

CITY           SKY/WX    TMP DP  RH WIND       PRES   REMARKS
SAVANNAH       CLEAR     43  31  62 CALM      29.96R
VALDOSTA       CLEAR     40  33  76 CALM      30.03R
ALMA           CLEAR     47  28  47 W6        29.99R
ST SIMONS      CLEAR     44  34  67 CALM      29.96R
FT STEWART     CLEAR     41  35  80 CALM      29.94R
ALBANY         CLEAR     41  31  67 CALM      30.05R
HUNTER AFB     CLEAR     41  34  74 W6        29.93R
MOODY AFB      CLEAR     46  28  49 W6        30.01R
BRUNSWICK      CLEAR     43  34  70 SW3       29.98R


CITY           SKY/WX    TMP DP  RH WIND       PRES   REMARKS
BAINBRIDGE*    CLEAR     43  34  70 W6        30.05R
MOULTRIE*      CLEAR     45  34  65 CALM      30.04R
VIDALIA*       CLEAR     46  30  53 CALM      29.97R
WAYCROSS*      CLEAR     48  33  55 W6        30.00R
DOUGLAS*       CLEAR     46  32  57 W5        30.02R
$$




USA.gov is the U.S. government's official web portal to all federal, state and local government web resources and services.